Torna al catalogo

CZ-6A DEB

AttivoPO
NORAD 61428·DEBRIS·🇨🇳 China

Lanciato Aug 6, 2024 da Taiyuan Satellite Launch Center

Loading…

Prossimi Passaggi (prossime 24 ore)

TLE

AggiornatoSource: Space-Track

Epoca: Sep 14, 2026, 02:01 UTC

1 61428U 24140YV  26257.08462995  .00001465  00000-0  63338-3 0  9999
2 61428  89.2744 289.4730 0073232 301.3167  58.0869 14.22567539106948

Traccia CZ-6A DEB in tempo reale con AllMySat

Download on the App Store